Regional Weather Roundup
Issued by NWS Green Bay, WI

Home | Current Version | Previous Version | Graphics & Text | Print | Product List | Glossary Off
Versions: 1 2 3 4 5 6 7 8 9 10 11 12 13 14 15 16 17 18 19 20 21 22 23 24 25 26 27 28 29 30 31 32 33 34 35 36 37 38 39 40 41 42 43 44 45 46 47 48 49 50

000
ASUS43 KGRB 020859
RWRGRB

NORTH-CENTRAL AND NORTHEAST WISCONSIN REGIONAL WEATHER ROUNDUP
NATIONAL WEATHER SERVICE GREEN BAY WI
400 AM CDT TUE SEP 02 2014

WIZ005-009-010>012-018-019-021000-
NORTH CENTRAL WISCONSIN

CITY           SKY/WX    TMP DP  RH WIND       PRES   REMARKS
IRONWOOD       NOT AVBL
MANITOWISH WTR NOT AVBL
ARBOR VITAE    NOT AVBL
EAGLE RIVER    NOT AVBL
LAND O LAKES   NOT AVBL
RHINELANDER    CLEAR     49  49 100 W5        29.83F
PHILLIPS       NOT AVBL
ANTIGO         NOT AVBL
TOMAHAWK       NOT AVBL
MERRILL        NOT AVBL
$$

WIZ013-073-021000-
NORTHEAST WISCONSIN

CITY           SKY/WX    TMP DP  RH WIND       PRES   REMARKS
IRON MOUNTAIN  CLEAR     53  51  93 CALM      29.79S
MARINETTE      CLEAR     57  54  88 W3        29.80R
$$

WIZ017-030-035>037-045-021000-
CENTRAL WISCONSIN

CITY           SKY/WX    TMP DP  RH WIND       PRES   REMARKS
MEDFORD        NOT AVBL
WAUSAU         CLEAR     54  53  97 CALM      29.82F
MOSINEE        NOT AVBL
MARSHFIELD     FOG       54  53  97 SW6       29.84S VSB 1
WISC RAPIDS    FOG       54  54 100 CALM      29.85F VSB 1/2
STEVENS POINT  NOT AVBL
WAUPACA        NOT AVBL
SHAWANO        CLEAR     58  55  92 CALM      29.83R
CLINTONVILLE   NOT AVBL
$$

WIZ038-039-048-051-021000-
FOX VALLEY

CITY           SKY/WX    TMP DP  RH WIND       PRES   REMARKS
NWS GREEN BAY  CLEAR     56  55  97 CALM      29.83R
APPLETON       NOT AVBL
OSHKOSH        CLEAR     62  59  90 SW5       29.84R
FOND DU LAC    CLEAR     58  55  90 S5        29.86R
$$

WIZ022-050-052-021000-
EAST CENTRAL WISCONSIN

CITY           SKY/WX    TMP DP  RH WIND       PRES   REMARKS
STURGEON BAY   CLEAR     59  55  88 SW5       29.82R
MANITOWOC      NOT AVBL
SHEBOYGAN      CLEAR     58  57  97 W5        29.85R
$$

LMZ563-521-522-541>543-021000-
LAKESHORE

STATION/POSITION TIME  TEMP    WIND        PRES    VSBY  WAVE
                       AIR SEA DIR/SP/G                  HT/PER
                 (UTC) (F)     (DEG/KT/KT) (MB)    (MI)  (FT/S)
SHEBOYGAN LKSHOR 0800   65 48  270/  7/  8 1010.1S
KEWAUNEE LKSHORE 0800   60     290/  5/  6 1008.7R
NORTHPORT PIER   0800   63     260/  3/  6 1008.5F
N MID LAKE BUOY  0800   65 65  250/  8/ 10 1008.0F         2/ 6
S GREEN BAY BUOY 0800   66     VRB 12/ 14  1010.6R
CHAMBERS ISLAND  0800   62     220/  4/  8 1009.1S
MENOMINEE LKSHOR 0800   61     250/  7/ 10 1009.7R
$$



USA.gov is the U.S. government's official web portal to all federal, state and local government web resources and services.